User: anonymous   Login
Location: Montague
(41.3030°N, 74.7940°W)
Time: 05:03:20
(UTC-05:00)
Language:

Cosmos 1461 - Orbit

View from above orbital plane
View from above orbital plane
View from above satellite
View from above satellite

Ground track
Ground track

The orbit data is extracted from the following two-line orbital elements,

1 14064U 83044A   14354.00022808  .00006528  00000-0  63078-3 0  7212
2 14064 065.0033 215.7723 0098100 037.5435 323.2475 14.90014449587525
Epoch (UTC): 20 December 2014 00:00:19
Eccentricity: 0.0098100
inclination: 65.0033°
perigee height: 529 km
apogee height: 666 km
right ascension of ascending node: 215.7723°
argument of perigee: 37.5435°
revolutions per day: 14.90014449
mean anomaly at epoch: 323.2475°
orbit number at epoch: 58752

The dashed part of the orbit path shows where the satellite is in the earth's shadow,  

DLR